Wind_Speed
17 17 18 20 21 20 20 18 17 17 16 16 16 18 18 17 17 17 16 16 16 16 17 16 14 15 15 14 14 14 13 12 11 9 8 8 8 8 9 9 9 10
18 18 19 20 21 21 20 19 18 18 17 17 18 19 18 17 17 16 15 16 16 16 16 15 14 14 13 12 12 12 12 12 11 9 9 8 8 8 9 9 9 10
18 18 18 19 20 20 20 19 19 18 18 19 19 19 18 17 16 16 16 16 16 16 15 15 15 13 11 11 12 11 11 11 11 10 9 8 8 9 9 9 10 10
19 18 18 18 19 19 20 20 20 19 19 20 19 18 17 16 16 16 17 17 17 16 15 15 16 15 12 12 12 11 12 12 11 10 9 8 9 9 9 9 10 10
19 18 17 17 18 19 20 20 20 19 20 21 20 18 17 16 17 17 17 17 16 17 16 15 17 17 14 14 12 12 12 12 11 9 8 9 10 10 10 10 10 10
20 19 17 17 17 18 19 19 19 20 21 21 20 18 17 17 18 17 17 16 16 17 17 16 17 17 17 18 15 13 12 12 10 8 8 10 11 10 10 10 11 11
21 19 18 17 17 18 19 19 20 20 21 21 19 16 17 18 19 18 17 16 16 17 18 17 17 17 19 20 19 15 13 11 9 9 10 11 11 11 11 11 11 11
21 20 18 17 18 18 19 20 21 20 19 19 17 16 17 19 19 18 16 16 15 17 19 18 18 19 19 20 19 16 12 10 10 10 11 11 11 11 11 11 11 11
22 20 18 18 18 19 19 21 20 18 18 17 16 16 19 19 19 17 16 16 16 17 19 18 18 19 19 18 17 14 11 11 11 12 11 11 11 11 11 11 11 11
23 20 19 19 19 19 20 20 19 18 18 17 17 18 20 19 18 17 17 18 17 18 18 18 17 17 17 16 14 12 11 12 12 12 11 10 11 11 10 10 11 11
23 21 19 20 19 19 20 20 19 19 18 17 18 20 19 18 17 17 18 18 19 20 19 17 16 15 15 13 12 12 12 12 12 12 11 10 10 11 11 11 11 12
24 21 20 20 19 20 20 20 19 19 17 17 19 20 19 17 17 18 19 21 22 21 19 16 14 14 13 12 12 12 12 12 12 11 10 10 11 11 12 12 13 14
24 21 20 20 20 20 20 20 20 19 17 18 20 19 17 17 18 18 21 24 24 21 18 15 13 12 12 12 12 12 12 12 12 11 10 11 12 12 13 14 14 14
24 22 21 20 20 20 20 21 21 19 18 19 19 18 17 18 20 20 24 27 25 20 17 14 12 12 12 12 12 12 12 12 12 11 11 12 13 14 14 15 15 15
25 23 22 21 21 21 21 22 21 19 19 19 18 17 18 20 21 23 27 29 25 20 16 14 12 12 12 12 12 12 12 13 12 12 13 14 15 15 15 16 16 15
26 23 22 22 22 22 22 22 21 20 19 18 17 18 19 21 23 25 28 29 25 19 16 14 13 13 12 12 12 13 13 14 14 14 14 15 16 16 16 17 17 16
26 24 23 23 23 23 22 22 21 20 19 17 18 19 19 21 23 26 28 28 24 19 16 15 14 14 13 12 13 14 14 15 16 16 16 17 17 17 17 18 18 17
26 24 23 24 24 24 22 21 21 20 18 17 18 19 19 21 23 26 28 27 22 19 17 16 15 14 14 13 14 15 16 17 17 17 18 18 19 19 19 19 19 18
26 24 24 25 25 24 23 22 21 20 18 17 18 19 20 21 23 26 27 25 21 18 17 16 15 15 14 15 16 16 17 18 19 19 20 20 20 20 20 20 20 20
26 24 25 26 26 25 23 22 21 20 18 18 19 20 21 21 24 26 26 23 20 18 17 16 16 16 16 17 17 18 19 20 20 21 21 21 22 22 22 22 22 21
27 25 26 28 27 25 24 22 21 20 18 19 19 20 21 23 25 27 25 22 20 18 17 17 16 17 18 18 18 19 20 21 22 22 22 23 23 23 24 25 24 24
27 26 28 29 27 26 24 22 21 19 19 19 19 21 22 25 28 28 25 23 21 19 18 18 18 19 20 19 19 20 21 22 23 23 24 24 24 26 28 27 27 26
27 28 29 29 29 27 24 22 21 19 19 19 20 21 22 25 28 28 26 24 22 20 20 19 20 21 21 20 20 21 22 23 24 24 24 25 26 28 28 25 24 24
28 29 29 29 29 26 23 22 21 19 18 19 19 20 21 24 27 28 27 26 24 22 22 21 21 22 21 21 21 22 23 24 25 25 26 27 29 28 25 22 21 22
29 30 30 30 29 26 23 22 21 19 18 19 20 20 21 23 25 27 27 26 26 25 24 23 23 22 21 21 22 23 24 25 26 27 29 30 28 25 22 21 21 21
30 31 32 31 29 27 25 23 21 20 19 19 20 21 22 23 24 25 26 26 26 25 24 24 23 22 21 21 23 24 25 26 27 28 30 29 26 23 21 21 20 20
Wind_Direction
227 230 228 227 229 231 231 232 232 233 235 239 243 248 250 252 252 250 249 249 251 251 254 255 240 217 216 223 214 203 206 215 221 233 246 250 254 259 263 266 269 272
228 229 228 227 229 231 232 233 233 235 239 240 243 247 251 253 253 252 250 250 250 248 249 246 224 211 218 222 211 205 209 218 228 239 248 254 259 265 270 271 271 273
228 228 227 228 230 232 233 234 234 237 241 243 245 250 254 256 255 253 250 249 249 245 243 235 215 205 214 216 212 217 221 225 234 242 251 259 266 272 273 272 272 272
226 227 226 227 229 231 232 234 235 238 242 244 248 253 257 259 257 253 250 249 247 241 237 229 212 202 204 209 214 228 232 233 239 244 254 265 270 273 273 272 273 273
225 225 225 226 228 229 231 233 235 237 241 244 248 253 256 256 253 251 249 247 243 236 232 227 216 208 206 210 221 237 238 236 242 248 261 269 270 272 273 275 276 276
223 224 224 227 229 230 232 233 233 235 239 244 249 253 255 252 248 248 247 243 239 231 225 223 218 212 211 216 229 245 243 239 247 256 265 268 268 271 274 276 279 280
223 225 226 228 230 231 232 231 230 232 236 243 250 253 253 250 248 248 245 239 234 226 220 219 216 212 213 219 232 246 247 245 254 260 263 264 266 270 274 278 282 284
224 226 227 229 231 232 231 231 231 232 236 244 252 252 251 251 250 247 241 233 228 221 216 215 212 211 215 222 233 243 246 249 255 257 259 262 265 271 277 282 285 285
224 226 227 227 230 231 232 234 235 236 240 247 252 250 250 252 250 243 234 227 223 216 209 206 206 209 216 223 232 240 245 251 254 256 258 261 267 273 278 281 283 284
224 226 226 226 229 232 233 236 238 239 242 247 248 248 250 250 244 234 227 223 217 204 196 194 198 206 215 223 231 239 246 251 254 255 258 261 267 272 275 278 281 283
225 226 225 226 228 232 234 235 237 239 241 244 245 247 250 247 236 226 222 215 201 190 186 190 200 209 218 226 233 242 248 253 255 254 256 260 264 268 272 275 277 278
226 225 225 225 227 232 234 234 235 237 238 241 245 249 248 239 228 221 214 200 188 185 189 195 206 216 223 231 239 246 250 252 251 250 252 256 261 267 271 274 276 278
225 226 225 225 227 230 231 232 234 234 234 239 245 247 242 229 221 217 205 192 187 189 193 199 211 222 230 237 244 248 249 247 246 247 251 256 261 267 271 274 276 280
225 226 225 225 226 229 229 231 232 231 232 239 243 243 235 222 218 212 199 192 191 194 197 203 216 228 235 241 245 246 245 243 242 245 250 256 261 266 271 274 277 279
224 225 225 225 225 227 228 229 231 230 233 238 241 238 229 220 216 210 199 194 195 198 201 209 221 231 239 243 244 243 242 242 243 245 251 257 263 267 270 271 274 277
223 223 223 224 225 226 227 227 228 229 233 237 237 234 228 222 217 210 202 198 198 202 207 215 224 233 240 242 245 245 244 244 245 247 252 259 264 267 268 269 271 273
222 222 222 223 225 227 227 226 226 228 232 234 233 232 229 224 217 210 203 200 202 207 213 220 228 235 240 244 248 249 248 247 247 249 255 260 263 265 265 266 268 269
221 221 221 223 226 228 228 226 225 227 230 231 230 231 230 225 218 210 204 201 205 211 218 225 232 238 243 248 251 252 251 250 250 253 257 260 262 263 263 264 265 265
219 219 220 224 227 228 228 225 224 226 229 229 229 230 229 224 215 206 202 203 209 216 223 231 238 244 248 252 254 253 252 251 252 254 257 260 261 261 261 261 260 260
218 216 219 223 226 227 227 224 223 224 226 225 226 226 225 220 210 202 201 206 213 220 228 236 243 248 252 254 254 252 251 251 252 255 258 260 261 261 260 259 259 258
217 216 219 221 224 226 226 223 221 222 223 222 223 224 222 215 206 202 205 211 217 223 231 239 246 252 255 255 254 253 251 251 253 256 259 261 262 262 261 258 256 254
218 219 221 221 223 226 226 221 219 221 222 221 221 222 219 213 208 208 212 216 220 226 234 241 249 253 255 256 254 253 252 253 255 257 259 263 264 264 263 262 260 260
220 222 222 220 221 225 224 219 218 219 221 221 221 222 220 216 213 215 218 221 225 231 237 244 250 253 255 256 255 254 253 254 257 259 262 267 268 267 269 272 273 273
222 223 223 220 220 222 221 217 216 219 220 220 221 222 222 221 220 221 223 226 230 235 239 244 248 251 254 256 255 255 255 257 260 264 266 267 266 269 274 276 275 274
224 224 223 221 219 220 219 216 215 217 218 219 220 221 222 223 223 225 226 229 232 237 240 243 245 247 252 255 257 257 259 261 264 267 268 268 269 274 276 272 269 271
226 225 222 219 216 216 215 213 213 215 218 219 219 220 222 223 224 226 228 231 235 238 241 245 247 248 250 255 258 259 261 264 267 269 272 275 278 279 276 271 268 268
Height
3129 3130 3131 3133 3135 3136 3138 3139 3141 3142 3143 3143 3144 3144 3144 3145 3145 3146 3146 3147 3147 3147 3147 3147 3148 3149 3150 3151 3152 3153 3155 3156 3156 3157 3157 3157 3157 3157 3157 3157 3157 3157
3127 3128 3130 3131 3132 3134 3136 3138 3139 3140 3140 3141 3142 3142 3142 3143 3144 3144 3144 3145 3145 3145 3146 3146 3147 3148 3149 3150 3152 3153 3153 3154 3155 3155 3156 3156 3155 3155 3156 3156 3156 3156
3125 3127 3128 3129 3131 3133 3134 3136 3137 3137 3138 3138 3139 3140 3140 3141 3142 3142 3142 3143 3143 3144 3144 3145 3146 3147 3148 3149 3150 3151 3152 3153 3153 3154 3154 3154 3154 3154 3154 3154 3155 3155
3123 3125 3126 3128 3129 3131 3132 3133 3134 3135 3136 3136 3137 3138 3139 3139 3140 3140 3140 3140 3141 3142 3143 3144 3145 3146 3147 3147 3149 3150 3151 3151 3152 3152 3152 3152 3153 3153 3153 3153 3153 3153
3122 3123 3124 3126 3127 3129 3130 3131 3132 3133 3133 3133 3134 3136 3137 3137 3137 3138 3138 3138 3139 3140 3141 3142 3144 3145 3146 3146 3148 3149 3150 3150 3151 3151 3151 3151 3151 3152 3152 3152 3152 3152
3119 3121 3122 3123 3125 3126 3127 3128 3129 3130 3130 3131 3132 3134 3134 3135 3135 3135 3136 3137 3137 3138 3139 3141 3142 3144 3145 3145 3147 3148 3149 3149 3149 3149 3149 3150 3150 3150 3150 3150 3150 3150
3117 3119 3120 3121 3123 3124 3125 3126 3126 3127 3128 3129 3130 3132 3132 3132 3132 3133 3134 3135 3136 3137 3138 3139 3140 3142 3144 3145 3146 3147 3147 3147 3147 3147 3148 3148 3149 3149 3149 3149 3149 3149
3115 3117 3118 3119 3120 3121 3122 3123 3123 3124 3126 3127 3129 3129 3130 3130 3130 3131 3132 3133 3134 3135 3136 3137 3139 3141 3143 3144 3145 3146 3146 3146 3146 3146 3147 3147 3147 3147 3147 3147 3147 3147
3113 3114 3116 3117 3118 3119 3120 3120 3120 3122 3124 3125 3127 3127 3128 3128 3128 3129 3130 3131 3132 3133 3135 3136 3138 3140 3141 3143 3144 3144 3144 3144 3144 3145 3145 3145 3145 3146 3146 3146 3146 3146
3111 3112 3114 3115 3116 3117 3117 3118 3119 3120 3122 3124 3125 3125 3125 3126 3126 3127 3128 3130 3131 3132 3134 3135 3137 3139 3140 3141 3142 3142 3142 3143 3143 3143 3143 3144 3144 3144 3144 3144 3144 3144
3108 3110 3111 3112 3114 3114 3116 3117 3118 3119 3121 3122 3122 3123 3123 3124 3125 3126 3127 3128 3130 3131 3133 3135 3136 3138 3139 3140 3140 3141 3141 3141 3141 3141 3142 3142 3143 3143 3143 3143 3142 3142
3106 3108 3109 3110 3111 3113 3114 3115 3116 3118 3119 3120 3120 3121 3121 3122 3123 3124 3125 3127 3128 3130 3132 3133 3135 3136 3137 3138 3139 3139 3139 3139 3140 3140 3140 3141 3141 3141 3141 3140 3140 3140
3104 3106 3107 3108 3109 3111 3112 3113 3114 3115 3116 3118 3118 3118 3119 3120 3121 3122 3124 3125 3127 3129 3130 3132 3134 3135 3136 3136 3137 3137 3137 3138 3138 3139 3139 3139 3139 3139 3139 3138 3138 3138
3102 3103 3105 3106 3107 3108 3110 3111 3112 3113 3114 3115 3116 3116 3117 3118 3119 3120 3122 3124 3126 3127 3129 3131 3132 3133 3134 3135 3135 3135 3136 3136 3137 3137 3137 3137 3137 3137 3137 3136 3136 3136
3099 3101 3102 3103 3105 3106 3107 3108 3109 3110 3112 3113 3114 3114 3115 3116 3117 3118 3120 3122 3124 3126 3128 3129 3130 3131 3132 3133 3133 3134 3134 3134 3135 3135 3135 3135 3135 3135 3134 3134 3134 3134
3096 3098 3100 3101 3102 3103 3105 3106 3107 3108 3110 3111 3112 3112 3113 3114 3115 3117 3118 3121 3123 3125 3126 3127 3129 3130 3130 3131 3131 3132 3132 3133 3133 3133 3133 3133 3133 3132 3132 3132 3132 3132
3094 3095 3097 3098 3099 3101 3102 3104 3105 3107 3108 3109 3110 3110 3111 3112 3114 3115 3117 3120 3122 3124 3125 3126 3127 3128 3128 3129 3129 3130 3130 3131 3131 3131 3131 3131 3131 3130 3130 3129 3129 3129
3091 3093 3094 3096 3097 3098 3100 3101 3103 3105 3106 3107 3108 3108 3109 3111 3112 3114 3116 3119 3121 3122 3123 3124 3125 3126 3126 3127 3127 3128 3128 3129 3129 3129 3129 3129 3128 3128 3127 3127 3127 3126
3089 3091 3092 3094 3095 3096 3097 3099 3101 3102 3104 3105 3106 3107 3108 3109 3111 3113 3115 3117 3119 3120 3121 3122 3123 3123 3124 3125 3125 3126 3126 3126 3127 3127 3126 3126 3126 3125 3125 3124 3124 3123
3086 3088 3090 3091 3092 3094 3095 3097 3099 3101 3102 3103 3104 3105 3106 3108 3109 3111 3114 3116 3117 3118 3119 3120 3120 3121 3122 3122 3123 3123 3123 3124 3124 3124 3124 3123 3123 3122 3122 3121 3121 3121
3083 3086 3087 3088 3089 3091 3093 3095 3097 3099 3100 3101 3102 3103 3105 3106 3108 3110 3112 3114 3115 3116 3117 3118 3118 3118 3119 3120 3120 3120 3121 3121 3121 3121 3121 3121 3120 3119 3119 3118 3118 3117
3081 3083 3084 3085 3087 3089 3090 3093 3095 3097 3098 3099 3100 3101 3103 3104 3106 3108 3110 3111 3112 3114 3114 3115 3115 3116 3116 3117 3117 3118 3118 3118 3118 3118 3118 3118 3117 3116 3115 3115 3115 3114
3078 3080 3081 3083 3085 3086 3088 3091 3093 3095 3096 3097 3098 3099 3101 3102 3104 3106 3107 3109 3110 3111 3112 3113 3113 3113 3114 3114 3115 3115 3115 3115 3115 3115 3115 3115 3113 3113 3113 3113 3113 3113
3076 3077 3078 3080 3082 3084 3086 3089 3091 3093 3094 3096 3097 3098 3099 3100 3102 3104 3105 3106 3108 3109 3109 3110 3110 3111 3111 3112 3112 3112 3113 3113 3112 3112 3112 3111 3109 3109 3110 3111 3111 3110
3073 3075 3076 3077 3079 3082 3084 3087 3089 3091 3092 3093 3094 3095 3097 3098 3099 3101 3102 3104 3105 3106 3107 3107 3108 3108 3109 3109 3110 3110 3110 3110 3109 3109 3108 3106 3106 3107 3108 3108 3107 3107
3071 3072 3072 3073 3076 3080 3082 3085 3087 3089 3090 3091 3092 3093 3094 3095 3097 3098 3100 3101 3102 3103 3104 3105 3105 3105 3106 3107 3107 3107 3107 3107 3106 3105 3105 3104 3104 3105 3105 3105 3104 3104